Home   Weather   Santa Rosa   Past weeks
Flag for USA

Past Weather in Santa Rosa, California, USA — Yesterday and Last 2 Weeks

Now
53 °F

Clear.


Feels Like: 53 °F
Forecast: 70 / 49 °F
Wind: No wind

Location: Santa Rosa Sonoma County Airport

Current Time: Oct 17, 2019 at 6:29:37 am

Latest Report: Oct 17, 2019 at 4:53 am


Visibility: 10 mi

Pressure: 29.88 "Hg

Humidity: 89%

Dew Point: 50 °F

Location of Santa RosaLocation

Past Weather in Santa Rosa — Graph

°F

Santa Rosa Temperature Yesterday

Maximum temperature yesterday: 72 °F (at 2:53 pm)
Minimum temperature yesterday: 38 °F (at 3:21 am)
Average temperature yesterday: 52 °F

High & Low Weather Summary for the Past Weeks

 TemperatureHumidityPressure
High90 °F (Oct 7, 3:53 pm)100% (Oct 14, 12:10 am)30.16 "Hg (Oct 14, 12:10 am)
Low34 °F (Oct 11, 6:53 am)3% (Oct 9, 3:53 pm)29.79 "Hg (Oct 8, 5:53 pm)
Average58 °F57%29.95 "Hg
* Reported Oct 2 4:53 am — Oct 17 4:53 am, Santa Rosa. Weather by CustomWeather, © 2019

Note: Actual official high and low records may vary slightly from our data, if they occured in-between our weather recording intervals... More about our weather records

Advertising

Santa Rosa Weather History for the Previous 24 Hours

Scroll right to see more
 ConditionsComfort  
Time TempWeatherWind HumidityBarometerVisibility
4:53 am
Thu, Oct 17
53 °FClear.No wind89%29.88 "Hg10 mi
3:53 am54 °FClear.No wind97%29.87 "Hg10 mi
3:11 am56 °FMostly cloudy.6 mph97%29.89 "Hg10 mi
2:53 am54 °FMostly cloudy.3 mph97%29.87 "Hg10 mi
2:36 am54 °FPassing clouds.5 mph100%29.88 "Hg10 mi
2:22 am54 °FPassing clouds.5 mph97%29.88 "Hg10 mi
1:53 am54 °FPassing clouds.6 mph97%29.86 "Hg10 mi
12:53 am55 °FClear.7 mph93%29.86 "Hg10 mi
11:53 pm
Wed, Oct 16
58 °FPassing clouds.6 mph93%29.87 "Hg10 mi
10:53 pm59 °FPassing clouds.7 mph90%29.86 "Hg10 mi
9:53 pm61 °FMostly cloudy.6 mph75%29.86 "Hg10 mi
9:12 pm60 °FMostly cloudy.6 mph72%29.88 "Hg10 mi
8:53 pm61 °FMostly cloudy.5 mph70%29.86 "Hg10 mi
7:53 pm62 °FClear.3 mph67%29.85 "Hg10 mi
6:53 pm63 °FPassing clouds.6 mph63%29.86 "Hg10 mi
5:53 pm65 °FPartly sunny.5 mph59%29.86 "Hg10 mi
4:53 pm66 °FSunny.7 mph56%29.87 "Hg10 mi
3:53 pm69 °FPartly sunny.12 mph49%29.89 "Hg10 mi
2:53 pm72 °FPartly sunny.5 mph37%29.89 "Hg10 mi
1:53 pm70 °FSunny.5 mph38%29.92 "Hg10 mi
12:53 pm68 °FPartly sunny.5 mph38%29.95 "Hg10 mi
11:53 am64 °FSunny.3 mph47%29.98 "Hg10 mi
10:53 am58 °FBroken clouds.No wind56%29.99 "Hg10 mi
9:53 am49 °FPartly sunny.No wind86%30.01 "Hg10 mi
8:53 am42 °FBroken clouds.No wind100%30.01 "Hg10 mi
8:30 am41 °FBroken clouds.No wind100%30.03 "Hg10 mi
8:00 am38 °FPartly sunny.No wind100%30.02 "Hg1 mi
6:53 am38 °FPassing clouds.No wind100%30.00 "Hg10 mi
6:36 am38 °FFog.No wind100%30.02 "Hg0 mi
Weather by CustomWeather, © 2019

See weather overview